Погода в Кепервееме

Россия / Чукотский автономный округ     67°50′30″N   166°08′47″E
В апреле 2022 года жителям России запретили посещать сайт meteo.paraplan.net по решению Генеральной прокуратуры. Аудитория сайта уменьшилась в 10 раз. Владельцы сайта не видят смысла в поддержке погодного сервера в таких условиях. Сайт будет закрыт в октябре.
темп.,
°C
ветер,
м/с
пор.,
м/с
влажн.,
%
обл.,
%
осадки,
мм/ч
давл.,
гПа
погр.,
м
6 октября, чт
чт600:00−7св3486100 0.1 994192
03:00−6св3388100 0.2 987165
06:00−6св3390100 0.6 982171
09:00−6св2386100 0.1 979200
12:00−5ссв3386100 0.2 976279
15:00−5зюз1194100 1.4 974182
18:00−4ююз2597100 3.4 974241
21:00−5ююз4696100 2.6 976277
7 октября, пт
пт700:00−6ююз4796100 4.6 978357
03:00−6ююз3396100 1.7 980159
06:00−6з51096100 3.8 984636
09:00−6зсз61194100 1.6 989597
12:00−5зсз5891100 2.6 993547
15:00−6сз10128899 0.3 997702
18:00−9зсз51194100 0.3 1002424
21:00−11ююз229799 0.2 100621
8 октября, сб
сб800:00−11ююз3396100 0.6 100960
03:00−10ююз4595100 0.4 1009114
06:00−11ююз449599 0.7 101174
09:00−12ююз469599 0.1 1012140
12:00−9ююз488865 0.2 1012468
15:00−9ююз588841 0.0 1011357
18:00−14ююв45915 0.0 101249
21:00−16ю568844 0.0 101255
9 октября, вс
вс900:00−15ю578489 0.0 101179
03:00−13ю588199 0.0 101198
06:00−12ю468990 0.0 1011102
09:00−12ююз469495 0.1 1012174
12:00−10ююз4789100 0.3 1013412
15:00−9ююз4790100 0.1 1013436
18:00−12ю449487 0.1 101435
21:00−14ю459555 0.0 101551
10 октября, пн
пн1000:00−14ю459570 0.1 101543
03:00−14ю449579 0.1 101537
06:00−13ю349597 0.1 101562
09:00−12ю349597 0.1 101581
12:00−10ююз2392100 0.4 1014219
15:00−9юз239296 0.1 1014249
18:00−13ююз229796 0.3 101510
21:00−15ююз229796 0.1 101618